Emporia, VA

2:58 PM EDT on October 01, 2016 (GMT -0400)
Emporia-Greensville Regional

Weather History for KEMV - February, 2014

Change the Weather History Date:

Saturday, February 22, 2014

  Actual Average Record
Temperature  
Mean Temperature 46 °F -  
Max Temperature 60 °F 60 °F 69 °F (2007)
Min Temperature 32 °F 31 °F 16 °F (1988)
Degree Days  
Heating Degree Days 19    
Moisture  
Dew Point 31 °F    
Average Humidity 61    
Maximum Humidity 100    
Minimum Humidity 27    
Precipitation  
Precipitation 0.00 in - - ()
Sea Level Pressure  
Sea Level Pressure 30.13 in    
Wind  
Wind Speed 3 mph (SSE)    
Max Wind Speed 8 mph    
Max Gust Speed -    
Visibility 10 miles    
Events      
Averages and records for this station are not official NWS values.
T = Trace of Precipitation, MM = Missing Value Source: NWS Daily Summary

Daily Weather History Graph

Daily Weather History Graph

Search for Another Location

Airport or City:

Trip Planner

Search our weather history database for the weather conditions in past years. The results will help you decide how hot, cold, wet, or windy it might be!

Date:

Astronomy

Feb. 22, 2014 Rise Set
Actual Time 6:49 AM EST 5:57 PM EST
Civil Twilight 6:23 AM EST 6:23 PM EST
Nautical Twilight 5:53 AM EST 6:53 PM EST
Astronomical Twilight 5:23 AM EST 7:23 PM EST
Moon 12:39 AM EST (2/22) 11:10 AM EST (2/22)
Length of Visible Light 12h 00m
Length of Day
11h 07m
Waning Gibbous, 50% of the Moon is Illuminated
Feb 22
Waning Gibbous
Feb 22
Last Quarter
Mar 1
New
Mar 8
First Quarter
Mar 16
Full

Hourly Weather History & Observations

Time (EST) Temp. Windchill Dew Point Humidity Pressure Visibility Wind Dir Wind Speed Gust Speed Precip Events Conditions
12:15 AM 48.2 °F - 33.8 °F 58% 30.02 in 10.0 mi West 6.9 mph - N/A   Clear
12:35 AM 46.4 °F 43.5 °F 33.8 °F 62% 30.03 in 10.0 mi WSW 5.8 mph - N/A   Clear
12:55 AM 46.4 °F 44.3 °F 33.8 °F 62% 30.04 in 10.0 mi WSW 4.6 mph - N/A   Clear
1:15 AM 46.4 °F - 32.0 °F 57% 30.04 in 10.0 mi Calm Calm - N/A   Clear
1:35 AM 46.4 °F - 32.0 °F 57% 30.04 in 10.0 mi Calm Calm - N/A   Clear
1:55 AM 46.4 °F 45.2 °F 32.0 °F 57% 30.04 in 10.0 mi West 3.5 mph - N/A   Clear
2:15 AM 44.6 °F 42.2 °F 32.0 °F 61% 30.05 in 10.0 mi West 4.6 mph - N/A   Clear
2:35 AM 44.6 °F 41.4 °F 32.0 °F 61% 30.05 in 10.0 mi West 5.8 mph - N/A   Clear
2:55 AM 44.6 °F 42.2 °F 32.0 °F 61% 30.06 in 10.0 mi West 4.6 mph - N/A   Clear
3:15 AM 42.8 °F 39.3 °F 32.0 °F 66% 30.07 in 10.0 mi West 5.8 mph - N/A   Clear
3:35 AM 42.8 °F 41.1 °F 32.0 °F 66% 30.08 in 10.0 mi West 3.5 mph - N/A   Clear
3:55 AM 39.2 °F - 32.0 °F 75% 30.09 in 10.0 mi Calm Calm - N/A   Clear
4:15 AM 37.4 °F 34.9 °F 32.0 °F 81% 30.10 in 10.0 mi West 3.5 mph - N/A   Clear
4:35 AM 35.6 °F - 32.0 °F 87% 30.10 in 10.0 mi Calm Calm - N/A   Clear
4:55 AM 35.6 °F 32.8 °F 32.0 °F 87% 30.10 in 10.0 mi WNW 3.5 mph - N/A   Clear
5:15 AM 37.4 °F 33.8 °F 30.2 °F 75% 30.11 in 10.0 mi NW 4.6 mph - N/A   Clear
5:35 AM 37.4 °F - 30.2 °F 75% 30.12 in 10.0 mi Calm Calm - N/A   Clear
5:55 AM 33.8 °F - 32.0 °F 93% 30.13 in 10.0 mi Calm Calm - N/A   Clear
6:15 AM 33.8 °F 28.6 °F 32.0 °F 93% 30.12 in 10.0 mi WNW 5.8 mph - N/A   Clear
6:35 AM 33.8 °F 29.6 °F 32.0 °F 93% 30.14 in 10.0 mi NNE 4.6 mph - N/A   Clear
6:55 AM 33.8 °F - 32.0 °F 93% 30.15 in 10.0 mi Calm Calm - N/A   Clear
7:15 AM 32.0 °F - 32.0 °F 100% 30.16 in 10.0 mi Calm Calm - N/A   Clear
7:35 AM 33.8 °F - 32.0 °F 93% 30.17 in 10.0 mi Calm Calm - N/A   Clear
7:55 AM 37.4 °F - 32.0 °F 81% 30.18 in 10.0 mi Calm Calm - N/A   Clear
8:15 AM 42.8 °F - 32.0 °F 66% 30.19 in - Calm Calm - N/A   Clear
8:35 AM 44.6 °F - 32.0 °F 61% 30.20 in 10.0 mi Calm Calm - N/A   Clear
8:55 AM 46.4 °F - 32.0 °F 57% 30.20 in 10.0 mi Calm Calm - N/A   Clear
9:15 AM 48.2 °F - 32.0 °F 54% 30.21 in 10.0 mi Calm Calm - N/A   Clear
9:35 AM 50.0 °F - 30.2 °F 47% 30.21 in 10.0 mi Calm Calm - N/A   Clear
9:55 AM 50.0 °F - 30.2 °F 47% 30.22 in 10.0 mi Calm Calm - N/A   Clear
10:15 AM 51.8 °F - 32.0 °F 47% 30.21 in 10.0 mi NE 3.5 mph - N/A   Clear
10:35 AM 53.6 °F - 30.2 °F 41% 30.21 in 10.0 mi Calm Calm - N/A   Clear
10:55 AM 53.6 °F - 30.2 °F 41% 30.21 in 10.0 mi Calm Calm - N/A   Clear
11:15 AM 55.4 °F - 32.0 °F 41% 30.20 in 10.0 mi ESE 3.5 mph - N/A   Clear
11:35 AM 55.4 °F - 26.6 °F 33% 30.19 in 10.0 mi ESE 3.5 mph - N/A   Clear
11:55 AM 55.4 °F - 26.6 °F 33% 30.19 in 10.0 mi ESE 3.5 mph - N/A   Clear
12:15 PM 57.2 °F - 26.6 °F 31% 30.18 in 10.0 mi SE 5.8 mph - N/A   Clear
12:35 PM 59.0 °F - 28.4 °F 31% 30.17 in 10.0 mi ESE 5.8 mph - N/A   Clear
12:55 PM 59.0 °F - 26.6 °F 29% 30.17 in 10.0 mi SSE 3.5 mph - N/A   Clear
1:15 PM 59.0 °F - 30.2 °F 34% 30.16 in 10.0 mi ESE 6.9 mph - N/A   Clear
1:35 PM 59.0 °F - 32.0 °F 36% 30.15 in 10.0 mi ESE 6.9 mph - N/A   Clear
1:55 PM 59.0 °F - 28.4 °F 31% 30.14 in 10.0 mi South 5.8 mph - N/A   Clear
2:15 PM 59.0 °F - 28.4 °F 31% 30.13 in 10.0 mi ESE 8.1 mph - N/A   Clear
2:35 PM 60.8 °F - 28.4 °F 29% 30.13 in 10.0 mi ESE 8.1 mph - N/A   Clear
2:55 PM 59.0 °F - 26.6 °F 29% 30.12 in 10.0 mi SE 6.9 mph - N/A   Clear
3:15 PM 60.8 °F - 26.6 °F 27% 30.12 in 10.0 mi ESE 6.9 mph - N/A   Clear
3:35 PM 60.8 °F - 28.4 °F 29% 30.12 in 10.0 mi South 6.9 mph - N/A   Clear
3:55 PM 60.8 °F - 26.6 °F 27% 30.12 in 10.0 mi SSE 5.8 mph - N/A   Clear
4:15 PM 60.8 °F - 28.4 °F 29% 30.12 in 10.0 mi SSE 5.8 mph - N/A   Clear
4:35 PM 59.0 °F - 28.4 °F 31% 30.12 in 10.0 mi SE 4.6 mph - N/A   Clear
4:55 PM 59.0 °F - 30.2 °F 34% 30.11 in 10.0 mi SSE 6.9 mph - N/A   Clear
5:15 PM 59.0 °F - 28.4 °F 31% 30.12 in 10.0 mi SSE 4.6 mph - N/A   Clear
5:35 PM 55.4 °F - 28.4 °F 36% 30.12 in 10.0 mi ESE 4.6 mph - N/A   Clear
5:55 PM 53.6 °F - 30.2 °F 41% 30.12 in 10.0 mi SE 3.5 mph - N/A   Clear
6:15 PM 50.0 °F - 32.0 °F 50% 30.12 in 10.0 mi SE 3.5 mph - N/A   Clear
6:35 PM 48.2 °F - 32.0 °F 54% 30.12 in 10.0 mi ESE 3.5 mph - N/A   Clear
6:55 PM 42.8 °F - 32.0 °F 66% 30.13 in 10.0 mi Calm Calm - N/A   Clear
7:15 PM 42.8 °F - 32.0 °F 66% 30.13 in 10.0 mi Calm Calm - N/A   Clear
7:35 PM 42.8 °F - 33.8 °F 70% 30.14 in 10.0 mi Calm Calm - N/A   Clear
7:55 PM 37.4 °F - 32.0 °F 81% 30.14 in 10.0 mi Calm Calm - N/A   Clear
8:15 PM 37.4 °F - 32.0 °F 81% 30.14 in 10.0 mi Calm Calm - N/A   Clear
8:35 PM 37.4 °F - 32.0 °F 81% 30.15 in 10.0 mi Calm Calm - N/A   Clear
8:55 PM 35.6 °F - 32.0 °F 87% 30.15 in 7.0 mi Calm Calm - N/A   Clear
9:15 PM 35.6 °F - 32.0 °F 87% 30.15 in 10.0 mi Calm Calm - N/A   Clear
9:35 PM 35.6 °F 32.8 °F 32.0 °F 87% 30.15 in 10.0 mi ESE 3.5 mph - N/A   Clear
9:55 PM 35.6 °F - 32.0 °F 87% 30.15 in 10.0 mi Calm Calm - N/A   Clear
10:15 PM 35.6 °F - 32.0 °F 87% 30.15 in 10.0 mi Calm Calm - N/A   Clear
10:35 PM 35.6 °F - 32.0 °F 87% 30.15 in 10.0 mi Calm Calm - N/A   Clear
10:55 PM 33.8 °F - 32.0 °F 93% 30.14 in 10.0 mi Calm Calm - N/A   Clear
11:15 PM 32.0 °F - 32.0 °F 100% 30.14 in 10.0 mi Calm Calm - N/A   Clear
11:35 PM 33.8 °F - 32.0 °F 93% 30.13 in 10.0 mi Calm Calm - N/A   Clear
11:55 PM 33.8 °F - 32.0 °F 93% 30.13 in 10.0 mi Calm Calm - N/A   Clear